Date String (YYYY-MM-DD hh:mm:ss) UTC,Instrument flags,absolute air pressure of the measurement (hPa),sample flow rate (lpm),inlet stack bypass flow (lpm),air temperature of the measurement (°C),ambient temperature measured by the external sensor (°C),aerosol sample conditioner tube jacket temperature (°C),OPC LED temperature (°C),internal box temperature (°C),relative humidity of the measurement (%),span deviation,mass concentration of particles derived from Lorenz-Mie calculation of OPC scattering (μg/m³),mass concentration of particles derived from Lorenz-Mie calculation of OPC scattering (μg/m³),mass concentration of particles derived from Lorenz-Mie calculation of OPC scattering (μg/m³)
DateTimeUTC,F1_M11,P_M11,Q1_M11,Q2_M11,T1_M11,T2_M11,T3_M11,T4_M11,T5_M11,U1_M11,ZSPAN_M11,X0_M11,X2_M11,X1_M11
2024-05-24 10:00:00,SystemResetWarning,0825.1,4.99,000.00,026.3,025.5,000.0,034.6,028.0,010.1,0000.0,0008.74,0001.65,0000.69
2024-05-24 10:01:00,SystemResetWarning,0825.0,5.00,000.00,026.3,025.5,000.0,034.6,028.0,010.2,0000.0,0009.02,0001.58,0000.69
2024-05-24 10:02:00,SystemResetWarning,0825.1,5.00,000.00,026.2,025.4,000.0,034.6,028.0,010.2,0000.0,0008.20,0001.61,0000.69
2024-05-24 10:03:00,SystemResetWarning,0825.1,5.01,000.00,026.2,025.4,000.0,034.6,028.0,010.3,0000.0,0008.09,0001.61,0000.68
2024-05-24 10:04:00,SystemResetWarning,0825.1,5.01,000.00,026.2,025.4,000.0,034.6,028.0,010.5,0000.0,0008.05,0001.68,0000.69
2024-05-24 10:05:00,SystemResetWarning,0825.1,5.00,000.00,026.2,025.4,000.0,034.6,028.0,010.5,0000.0,0008.76,0001.68,0000.69
2024-05-24 10:06:00,SystemResetWarning,0825.1,4.99,000.00,026.2,025.4,000.0,034.6,028.0,010.3,0000.0,0008.71,0001.68,0000.70
2024-05-24 10:07:00,SystemResetWarning,0825.2,5.00,000.00,026.2,025.3,000.0,034.6,028.0,010.4,0000.0,0008.63,0001.66,0000.69
2024-05-24 10:08:00,SystemResetWarning,0825.2,5.01,000.00,026.2,025.3,000.0,034.5,027.9,010.4,0000.0,0009.09,0001.66,0000.69
2024-05-24 10:09:00,SystemResetWarning,0825.2,5.01,000.00,026.2,025.3,000.0,034.5,027.9,010.1,0000.0,0009.21,0001.67,0000.70
2024-05-24 10:10:00,SystemResetWarning,0825.2,5.01,000.00,026.2,025.3,000.0,034.5,027.9,010.0,0000.0,0009.23,0001.70,0000.70
2024-05-24 10:11:00,SystemResetWarning,0825.2,4.99,000.00,026.1,025.3,000.0,034.5,027.9,010.0,0000.0,0010.00,0001.67,0000.70
2024-05-24 10:12:00,SystemResetWarning,0825.3,4.99,000.00,026.1,025.3,000.0,034.5,027.9,010.1,0000.0,0009.26,0001.74,0000.71
2024-05-24 10:13:00,SystemResetWarning,0825.3,5.01,000.00,026.1,025.3,000.0,034.5,027.9,010.4,0000.0,0009.54,0001.72,0000.70
2024-05-24 10:14:00,SystemResetWarning,0825.3,5.01,000.00,026.1,025.3,000.0,034.5,027.9,010.3,0000.0,0010.27,0001.66,0000.70
2024-05-24 10:15:00,SystemResetWarning,0825.3,5.01,000.00,026.1,025.3,000.0,034.5,027.9,010.4,0000.0,0010.27,0001.59,0000.69
2024-05-24 10:16:00,SystemResetWarning,0825.3,5.00,000.00,026.1,025.3,000.0,034.5,027.8,010.5,0000.0,0009.39,0001.56,0000.68
2024-05-24 10:17:00,SystemResetWarning,0825.3,5.00,000.00,026.1,025.3,000.0,034.4,027.8,010.4,0000.0,0009.30,0001.56,0000.68
2024-05-24 10:18:00,SystemResetWarning,0825.3,4.99,000.00,026.1,025.3,000.0,034.4,027.8,010.3,0000.0,0009.36,0001.58,0000.68
2024-05-24 10:19:00,SystemResetWarning,0825.2,4.99,000.00,026.1,025.2,000.0,034.4,027.8,010.0,0000.0,0008.94,0001.58,0000.68
2024-05-24 10:20:00,SystemResetWarning,0825.2,4.99,000.00,026.1,025.2,000.0,034.4,027.8,009.9,0000.0,0008.45,0001.54,0000.67
2024-05-24 10:21:00,SystemResetWarning,0825.2,5.01,000.00,026.0,025.2,000.0,034.4,027.8,009.9,0000.0,0008.20,0001.48,0000.66
2024-05-24 10:22:00,SystemResetWarning,0825.2,5.01,000.00,026.0,025.2,000.0,034.4,027.8,009.9,0000.0,0006.83,0001.47,0000.65
2024-05-24 10:23:00,SystemResetWarning,0825.2,5.01,000.00,026.0,025.2,000.0,034.4,027.8,010.0,0000.0,0007.01,0001.45,0000.64
2024-05-24 10:24:00,SystemResetWarning,0825.3,5.00,000.00,026.0,025.2,000.0,034.4,027.8,009.9,0000.0,0007.58,0001.40,0000.64
2024-05-24 10:25:00,SystemResetWarning,0825.3,5.00,000.00,026.0,025.2,000.0,034.4,027.8,009.8,0000.0,0006.66,0001.48,0000.65
2024-05-24 10:26:00,SystemResetWarning,0825.3,4.99,000.00,026.0,025.2,000.0,034.4,027.8,009.8,0000.0,0007.48,0001.52,0000.65
2024-05-24 10:27:00,SystemResetWarning,0825.3,4.99,000.00,026.0,025.2,000.0,034.4,027.8,009.9,0000.0,0007.90,0001.55,0000.64
2024-05-24 10:28:00,SystemResetWarning,0825.3,5.00,000.00,026.0,025.2,000.0,034.4,027.8,010.2,0000.0,0008.41,0001.58,0000.64
2024-05-24 10:29:00,SystemResetWarning,0825.3,5.00,000.00,026.0,025.2,000.0,034.4,027.8,010.2,0000.0,0009.67,0001.58,0000.63
2024-05-24 10:30:00,SystemResetWarning,0825.3,5.00,000.00,026.0,025.2,000.0,034.4,027.8,010.1,0000.0,0011.01,0001.61,0000.63
2024-05-24 10:31:00,SystemResetWarning,0825.2,5.01,000.00,026.0,025.2,000.0,034.4,027.8,010.2,0000.0,0011.06,0001.62,0000.63
2024-05-24 10:32:00,SystemResetWarning,0825.3,5.01,000.00,026.0,025.2,000.0,034.4,027.8,010.1,0000.0,0011.07,0001.62,0000.63
2024-05-24 10:33:00,SystemResetWarning,0825.3,5.00,000.00,026.0,025.2,000.0,034.3,027.8,010.0,0000.0,0011.07,0001.63,0000.65
2024-05-24 10:34:00,SystemResetWarning,0825.3,5.00,000.00,026.0,025.2,000.0,034.3,027.8,009.9,0000.0,0011.38,0001.66,0000.65
2024-05-24 10:35:00,SystemResetWarning,0825.3,4.99,000.00,026.0,025.2,000.0,034.3,027.8,009.8,0000.0,0011.49,0001.64,0000.65
2024-05-24 10:36:00,SystemResetWarning,0825.3,5.00,000.00,026.0,025.2,000.0,034.3,027.8,009.9,0000.0,0011.09,0001.63,0000.66
2024-05-24 10:37:00,SystemResetWarning,0825.3,5.00,000.00,026.0,025.2,000.0,034.3,027.8,009.9,0000.0,0010.66,0001.62,0000.67
2024-05-24 10:38:00,SystemResetWarning,0825.4,5.01,000.00,026.0,025.2,000.0,034.3,027.8,009.9,0000.0,0009.74,0001.59,0000.67
2024-05-24 10:39:00,SystemResetWarning,0825.4,5.00,000.00,026.0,025.2,000.0,034.3,027.8,009.9,0000.0,0009.35,0001.50,0000.67
2024-05-24 10:40:00,SystemResetWarning,0825.3,5.00,000.00,026.0,025.2,000.0,034.3,027.8,009.8,0000.0,0008.41,0001.51,0000.68
2024-05-24 10:41:00,SystemResetWarning,0825.4,4.99,000.00,026.0,025.2,000.0,034.3,027.8,009.8,0000.0,0007.55,0001.47,0000.68
2024-05-24 10:42:00,SystemResetWarning,0825.4,5.00,000.00,026.0,025.2,000.0,034.3,027.8,009.9,0000.0,0007.77,0001.46,0000.69
2024-05-24 10:43:00,SystemResetWarning,0825.4,5.00,000.00,026.0,025.2,000.0,034.3,027.8,009.8,0000.0,0007.94,0001.54,0000.70
2024-05-24 10:44:00,SystemResetWarning,0825.4,5.00,000.00,026.0,025.2,000.0,034.3,027.8,009.8,0000.0,0008.07,0001.57,0000.70
2024-05-24 10:45:00,SystemResetWarning,0825.3,5.00,000.00,026.0,025.2,000.0,034.3,027.8,009.8,0000.0,0007.77,0001.52,0000.70
2024-05-24 10:46:00,SystemResetWarning,0825.3,5.00,000.00,026.0,025.2,000.0,034.3,027.8,009.7,0000.0,0007.60,0001.50,0000.70
2024-05-24 10:47:00,SystemResetWarning,0825.3,5.00,000.00,026.0,025.2,000.0,034.3,027.8,009.7,0000.0,0007.86,0001.50,0000.69
2024-05-24 10:48:00,SystemResetWarning,0825.3,5.00,000.00,026.0,025.2,000.0,034.3,027.8,009.8,0000.0,0008.39,0001.53,0000.68
2024-05-24 10:49:00,SystemResetWarning,0825.3,5.00,000.00,026.0,025.2,000.0,034.3,027.8,009.8,0000.0,0008.50,0001.56,0000.68
2024-05-24 10:50:00,SystemResetWarning,0825.2,5.01,000.00,026.0,025.2,000.0,034.3,027.8,009.8,0000.0,0008.47,0001.58,0000.69
2024-05-24 10:51:00,SystemResetWarning,0825.2,5.00,000.00,026.0,025.2,000.0,034.3,027.8,009.8,0000.0,0008.54,0001.54,0000.68
2024-05-24 10:52:00,SystemResetWarning,0825.2,5.01,000.00,026.0,025.2,000.0,034.3,027.8,009.8,0000.0,0009.05,0001.50,0000.68
2024-05-24 10:53:00,SystemResetWarning,0825.3,5.00,000.00,026.0,025.2,000.0,034.3,027.8,009.8,0000.0,0008.35,0001.49,0000.68
2024-05-24 10:54:00,SystemResetWarning,0825.2,5.00,000.00,026.0,025.2,000.0,034.3,027.8,009.9,0000.0,0008.48,0001.47,0000.67
2024-05-24 10:55:00,SystemResetWarning,0825.3,4.99,000.00,026.0,025.2,000.0,034.3,027.8,009.8,0000.0,0008.48,0001.47,0000.67
2024-05-24 10:56:00,SystemResetWarning,0825.3,5.00,000.00,026.0,025.2,000.0,034.3,027.8,009.8,0000.0,0008.56,0001.51,0000.67
2024-05-24 10:57:00,SystemResetWarning,0825.4,5.01,000.00,026.0,025.2,000.0,034.3,027.7,009.8,0000.0,0008.89,0001.51,0000.66
2024-05-24 10:58:00,SystemResetWarning,0825.4,5.00,000.00,026.0,025.2,000.0,034.3,027.7,009.8,0000.0,0008.83,0001.49,0000.66
2024-05-24 10:59:00,SystemResetWarning,0825.5,4.99,000.00,026.0,025.2,000.0,034.3,027.7,009.8,0000.0,0008.03,0001.45,0000.65
